This demonstration page uses our WeatherBlox Daily Observations layout. Learn more.

Left ArrowRight Arrow

41.55636, -103.73856

Hourly Observations for April 17, 2015

Temp ( °F °C ) Dew Point ( °F °C ) Humidity (%) Winds ( mph kmh ) Pressure ( in mb ) Visibility ( mi km ) Precip ( " mm )
12:53 am 00:53 Cloudy 47 8.3 40 4.4 77 77 NNE 12 19 30.13 1020 10 16 0.02 0.51
1:53 am 01:53 Cloudy with Light Rain 46 7.8 40 4.4 79 79 Calm 30.13 1020 10 16 0.00 0.03
2:53 am 02:53 Cloudy with Light Rain 45 7.2 43 6.1 93 93 NE 22 35 30.12 1020 8 13 0.07 1.78
3:53 am 03:53 Cloudy with Light Rain 45 7.2 43 6.1 93 93 NE 24 39 30.11 1020 7 11 0.01 0.25
4:53 am 04:53 Cloudy 45 7.2 44 6.7 97 97 NE 24 39 30.08 1019 10 16 0.01 0.25
5:53 am 05:53 Cloudy with Light Rain 45 7.2 41 5 86 86 NNE 22 35 30.07 1018 9 14 0.00 0.03
6:53 am 06:53 Cloudy with Rain 44 6.7 44 6.7 100 100 NE 23 37 30.08 1019 3 5 0.02 0.51
7:10 am 07:10 Cloudy with Rain 45 7 45 7 100 100 NE 20 31 30.09 1019 3 4 0.00 0.00
7:48 am 07:48 Cloudy with Light Rain 45 7 N/A N/A NE 22 35 30.09 1019 4 6 0.00 0.00
7:53 am 07:53 Cloudy with Light Rain 45 7 N/A N/A NE 20 31 30.09 1019 4 6 0.10 2.54
8:22 am 08:22 Cloudy with Light Rain 45 7 N/A N/A NE 21 33 30.09 1019 4 6 0.00 0.00
8:53 am 08:53 Cloudy with Rain 44 6.7 44 6.7 100 100 NNE 20 31 30.09 1019 4 6 0.10 2.54
9:53 am 09:53 Cloudy with Light Rain 45 7.2 45 7.2 100 100 NE 20 31 30.08 1019 6 10 0.07 1.78
10:09 am 10:09 Cloudy with Light Rain 45 7.2 45 7.2 100 100 NE 16 26 30.09 1019 3 4 0.02 0.51
10:17 am 10:17 Cloudy with Light Rain 46 7.8 46 7.8 100 100 ENE 15 24 30.09 1019 6 10 0.02 0.51
10:28 am 10:28 Cloudy with Light Rain 46 8 46 8 100 100 NE 18 30 30.09 1019 3 5 0.00 0.00
10:53 am 10:53 Cloudy with Light Rain 47 8.3 47 8.3 100 100 ENE 20 31 30.07 1018 6 10 0.04 1.02
11:00 am 11:00 Cloudy with Light Rain 46 8 46 8 100 100 ENE 15 24 30.09 1019 5 8 0.00 0.00
11:28 am 11:28 Cloudy with Light Rain 48 9 48 9 100 100 ENE 20 31 30.06 1018 4 6 0.00 0.00
11:38 am 11:38 Cloudy with Rain 48 9 48 9 100 100 NE 17 28 30.06 1018 2 3 0.00 0.00
11:48 am 11:48 Cloudy with Light Rain 48 9 48 9 100 100 ENE 17 28 30.06 1018 6 10 0.00 0.00
11:53 am 11:53 Cloudy with Light Rain 48 8.9 48 8.9 100 100 ENE 16 26 30.06 1018 7 11 0.04 1.02
12:10 pm 12:10 Cloudy 48 9 48 9 100 100 NE 24 39 30.03 1017 10 16 0.00 0.00
12:53 pm 12:53 Cloudy with Light Rain 47 8.3 47 8.3 100 100 NE 20 31 30.04 1017 6 10 0.00 0.03
1:29 pm 13:29 Cloudy with Light Rain 47 8.3 47 8.3 100 100 NE 23 37 30.06 1018 5 8 0.01 0.25
1:53 pm 13:53 Cloudy 47 8.3 47 8.3 100 100 NE 23 37 30.04 1017 10 16 0.01 0.25
2:00 pm 14:00 Cloudy 48 9 46 8 94 94 NE 23 37 30.03 1017 10 16 0.00 0.00
2:31 pm 14:31 Cloudy with Light Rain 47 8.3 47 8.3 100 100 NE 26 43 30.03 1017 4 6 0.00 0.03
2:53 pm 14:53 Cloudy with Light Rain 48 8.9 47 8.3 96 96 NE 29 46 30.01 1016 4 6 0.00 0.03
3:14 pm 15:14 Cloudy with Light Rain 46 8 46 8 100 100 NE 24 39 30.03 1017 3 5 0.00 0.00
3:53 pm 15:53 Cloudy with Light Rain 47 8.3 47 8.3 100 100 NE 26 43 30.01 1016 7 11 0.00 0.03
4:53 pm 16:53 Cloudy with Light Rain 48 8.9 47 8.3 96 96 NE 28 44 29.99 1016 5 8 0.00 0.03
5:53 pm 17:53 Cloudy with Heavy Rain 47 8.3 47 8.3 100 100 NE 7 11 30.05 1018 4 6 0.11 2.79
5:57 pm 17:57 Cloudy with Heavy Rain 48 9 48 9 100 100 VRB 6 9 30.03 1017 3 5 0.00 0.00
6:06 pm 18:06 Cloudy with Rain 48 8.9 48 8.9 100 100 N 12 19 30.03 1017 3 4 0.06 1.52
6:20 pm 18:20 Cloudy with Rain 46 8 46 8 100 100 N 7 11 30.06 1018 4 6 0.00 0.00
6:31 pm 18:31 Cloudy with Rain 47 8.3 47 8.3 100 100 N 14 22 30.06 1018 3 4 0.15 3.81
6:42 pm 18:42 Cloudy with Rain 46 8 45 7 93 93 NNW 12 19 30.06 1018 4 6 0.00 0.00
6:53 pm 18:53 Cloudy with Light Rain 45 7.2 45 7.2 100 100 NW 17 28 30.03 1017 4 6 0.21 5.33
7:53 pm 19:53 Cloudy 44 6.7 44 6.7 100 100 W 13 20 30.03 1017 10 16 0.00 0.03
8:53 pm 20:53 Cloudy 43 6.1 43 6.1 100 100 W 7 11 30.05 1018 10 16 0.00 0.00
9:53 pm 21:53 Cloudy with Rain 43 6.1 43 6.1 100 100 W 8 13 30.06 1018 5 8 0.02 0.51
10:46 pm 22:46 Cloudy with Rain 43 6 43 6 100 100 W 6 9 30.09 1019 3 4 0.00 0.00
10:53 pm 22:53 Cloudy with Rain 43 6.1 43 6.1 100 100 NW 6 9 30.06 1018 3 4 0.18 4.57
11:53 pm 23:53 Cloudy with Rain 42 5.6 42 5.6 100 100 NW 10 17 30.04 1017 3 5 0.19 4.83

Powered by AerisWeather